212P/NEAT (2016)

Japanese version
Home page
Updated on May 20, 2017

---------------------------------------------------------------------

* Profile

* Orbital Elements

Epoch 2016 Sept. 9.0 TT = JDT 2457640.5
T 2016 Sept. 10.41320 TT                                MPCW
q   1.6445506            (2000.0)            P               Q
n   0.12716159     Peri.   15.08044     -0.38675865     -0.84162422
a   3.9165056      Node    98.88605     +0.80168439     -0.50886701
e   0.5800975      Incl.   22.42804     +0.45576297     +0.18089512
P   7.75
From 102 observations 2000 Dec. 1-2017 Mar. 30, mean residual 0".6.

* Magnitudes Graph

        H = 16.0  G = 0.15

---------------------------------------------------------------------

The orbital elements are published on M.P.E.C. 2017-J52.
The magnitudes graphs are made with Comet for Windows.

---------------------------------------------------------------------

Copyright(C) Seiichi Yoshida (comet@aerith.net). All rights reserved.